FW5647 Weather Reports


Display with metric or nautical units.
time (UTC)temp
F
wind
direction
speed
MPH
gust
MPH
rain 1hr
in
rain 24hr
in
rain mn
in
humidity
%
barometer
mb
20260903121538 70 0 0.0 0.0 0.00 0.15 0.15 97 1015.2
20260903120057 69 0 0.0 0.0 0.00 0.15 0.15 97 1015.1
20260903114540 68 0 0.0 0.0 0.00 0.15 0.15 96 1015.1
20260903113048 68 0 0.0 0.0 0.00 0.15 0.15 96 1015.1
20260903111546 68 0 0.0 0.0 0.00 0.15 0.15 96 1015.0
20260903110043 68 0 0.0 0.0 0.00 0.15 0.15 96 1014.9
20260903104547 68 0 0.0 0.0 0.00 0.15 0.15 96 1014.9
20260903103040 68 0 0.0 0.0 0.00 0.15 0.15 96 1014.6
20260903101547 68 0 0.0 0.0 0.00 0.15 0.15 96 1014.7
20260903100041 69 0 0.0 0.0 0.00 0.15 0.15 96 1014.6
20260903094543 69 0 0.0 0.0 0.00 0.15 0.15 96 1014.6
20260903093052 69 0 0.0 0.0 0.00 0.15 0.15 96 1014.6
20260903091543 69 0 0.0 0.0 0.00 0.15 0.15 96 1014.6
20260903090042 69 0 0.0 0.0 0.00 0.15 0.15 96 1014.4
20260903084540 70 0 0.0 0.0 0.00 0.15 0.15 96 1014.4
20260903083039 70 0 0.0 0.0 0.00 0.15 0.15 95 1014.2
20260903081542 70 0 0.0 0.0 0.00 0.15 0.15 95 1014.3
20260903080040 70 0 0.0 0.0 0.00 0.15 0.15 95 1014.4
20260903074544 71 0 0.0 0.0 0.00 0.15 0.15 95 1014.3
20260903073050 71 247 0.0 1.0 0.00 0.15 0.15 95 1014.4
20260903071541 71 0 0.0 2.0 0.00 0.15 0.15 95 1014.6
20260903070048 71 0 0.0 0.0 0.00 0.15 0.15 95 1014.5
20260903064543 71 0 0.0 0.0 0.00 0.15 0.15 95 1014.0
20260903063047 71 0 0.0 0.0 0.00 0.15 0.15 94 1014.1
20260903061551 71 0 0.0 0.0 0.00 0.15 0.15 94 1014.0
20260903060043 71 0 0.0 0.0 0.00 0.15 0.15 94 1014.2
20260903054553 72 0 0.0 0.0 0.00 0.15 0.15 94 1014.1
20260903053051 72 0 0.0 0.0 0.00 0.15 0.15 93 1014.1
20260903051544 72 0 0.0 0.0 0.00 0.15 0.15 93 1014.0
20260903050049 72 0 0.0 0.0 0.15 0.15 0.15 93 1014.0
20260903044554 72 0 0.0 0.0 0.15 0.15 0.15 92 1014.1
20260903043047 73 0 0.0 0.0 0.15 0.15 0.15 90 1013.7
20260903041543 74 0 0.0 16.0 0.15 0.15 0.15 88 1013.6
20260903040049 75 0 0.0 7.0 0.00 0.00 0.00 81 1013.9
20260903034551 74 0 0.0 2.0 0.00 0.00 0.00 81 1013.9
20260903033045 74 127 0.0 5.0 0.00 0.00 0.00 79 1014.1
20260903031622 75 0 0.0 5.0 0.00 0.00 0.00 78 1014.2
20260903030054 79 340 7.0 16.0 0.00 0.00 0.00 73 1014.2
20260903024548 81 0 1.0 5.0 0.00 0.00 0.00 80 1013.2
20260903023044 80 257 1.0 4.0 0.00 0.00 0.00 81 1012.3
20260903021543 79 0 0.0 0.0 0.00 0.00 0.00 83 1012.3
20260903020052 79 0 0.0 0.0 0.00 0.00 0.00 82 1013.5
20260903014555 80 0 0.0 0.0 0.00 0.00 0.00 81 1013.5
20260903013044 80 0 0.0 0.0 0.00 0.00 0.00 80 1013.4
20260903011556 81 0 0.0 0.0 0.00 0.00 0.00 79 1013.3
20260903010050 82 0 0.0 0.0 0.00 0.00 0.00 78 1013.0
20260903004550 82 0 0.0 1.0 0.00 0.00 0.00 77 1012.9
20260903003046 83 0 0.0 1.0 0.00 0.00 0.00 76 1012.8
20260903001544 84 0 0.0 0.0 0.00 0.00 0.00 74 1012.6
20260903000047 85 0 0.0 0.0 0.00 0.00 0.00 71 1012.7
20260902234554 87 0 0.0 1.0 0.00 0.00 0.00 70 1012.8
20260902233048 88 0 0.0 5.0 0.00 0.00 0.00 67 1012.7
20260902231549 89 264 0.0 8.0 0.00 0.00 0.00 64 1012.7
20260902230046 90 262 1.0 8.0 0.00 0.00 0.00 64 1012.6
20260902224551 90 245 1.0 8.0 0.00 0.00 0.00 63 1012.7
20260902223046 90 245 4.0 9.0 0.00 0.00 0.00 62 1012.7
20260902221541 90 226 1.0 12.0 0.00 0.00 0.00 61 1012.7
20260902220041 92 265 3.0 14.0 0.00 0.00 0.00 60 1012.2
20260902214547 92 219 2.0 9.0 0.00 0.00 0.00 60 1012.7
20260902213048 92 226 1.0 14.0 0.00 0.00 0.00 59 1013.0
20260902211547 92 247 2.0 18.0 0.00 0.00 0.00 58 1013.2
20260902210046 92 226 3.0 14.0 0.00 0.00 0.00 58 1013.2
20260902204542 92 201 3.0 11.0 0.00 0.00 0.00 60 1013.2
20260902203058 92 218 4.0 14.0 0.00 0.00 0.00 61 1013.3
20260902201545 92 188 3.0 10.0 0.00 0.00 0.00 57 1013.6
20260902200053 93 184 2.0 15.0 0.00 0.00 0.00 56 1013.6
20260902194544 93 244 4.0 12.0 0.00 0.00 0.00 57 1013.9
20260902193042 92 101 2.0 15.0 0.00 0.00 0.00 57 1014.2
20260902191550 92 227 5.0 12.0 0.00 0.00 0.00 58 1014.3
20260902190049 92 261 5.0 14.0 0.00 0.00 0.00 59 1014.3
20260902184550 92 185 3.0 13.0 0.00 0.00 0.00 61 1014.4
20260902183107 92 244 2.0 10.0 0.00 0.00 0.00 59 1014.4
20260902181543 92 328 4.0 10.0 0.00 0.00 0.00 58 1014.6
20260902180042 91 177 5.0 10.0 0.00 0.00 0.00 59 1014.8
20260902174540 91 271 4.0 8.0 0.00 0.00 0.00 61 1015.0
20260902173044 92 308 2.0 8.0 0.00 0.00 0.00 61 1015.3
20260902171541 91 331 2.0 11.0 0.00 0.00 0.00 62 1015.3
20260902170046 91 234 2.0 6.0 0.00 0.00 0.00 62 1015.7
20260902164543 90 285 3.0 9.0 0.00 0.00 0.00 63 1015.7
20260902163057 90 252 3.0 7.0 0.00 0.00 0.00 63 1015.6
20260902161550 88 262 5.0 11.0 0.00 0.00 0.00 66 1015.9
20260902160039 88 297 3.0 11.0 0.00 0.00 0.00 66 1015.8
20260902154538 88 282 2.0 8.0 0.00 0.00 0.00 67 1015.8
20260902153042 87 141 5.0 11.0 0.00 0.00 0.00 69 1015.8
20260902151548 86 273 2.0 9.0 0.00 0.00 0.00 71 1015.6
20260902150043 85 219 3.0 7.0 0.00 0.00 0.00 73 1015.6
20260902144543 85 278 2.0 5.0 0.00 0.00 0.00 74 1015.7
20260902143042 84 240 2.0 7.0 0.00 0.00 0.00 75 1015.4
20260902141547 83 230 2.0 9.0 0.00 0.00 0.00 77 1015.5
20260902140047 83 220 2.0 7.0 0.00 0.00 0.00 77 1015.5
20260902134547 82 207 1.0 5.0 0.00 0.00 0.00 81 1015.5
20260902133040 80 233 1.0 6.0 0.00 0.00 0.00 83 1015.7
20260902131542 79 273 2.0 7.0 0.00 0.00 0.00 85 1015.6
20260902130041 78 248 0.0 5.0 0.00 0.00 0.00 88 1015.5
20260902124541 76 0 1.0 6.0 0.00 0.00 0.00 90 1015.6
20260902123101 75 218 0.0 3.0 0.00 0.00 0.00 93 1015.6